User: anonymous   Login
Location: Unspecified
(0.0000°N, 0.0000°E)
Time: 06:48:22
(UTC+02:00)
Language:

H-2A R/B - Orbit

View from above orbital plane
View from above orbital plane
View from above satellite
View from above satellite

Ground track
Ground track

The orbit data is extracted from the following two-line orbital elements,

1 26899U 01038B   17207.58567922 +.00000064 +00000-0 +76677-4 0  9994
2 26899 028.4274 048.7916 7117284 214.9130 065.8445 02.48103773137466
Epoch (UTC): 26 July 2017 14:03:22
Eccentricity: 0.7117284
inclination: 28.4274°
perigee height: 266 km
apogee height: 33074 km
right ascension of ascending node: 48.7916°
argument of perigee: 214.9130°
revolutions per day: 2.48103773
mean anomaly at epoch: 65.8445°
orbit number at epoch: 13746

The dashed part of the orbit path shows where the satellite is in the earth's shadow,  

DLR